Find Hylas

NORAD ID: 37237 Int'l Des: 2010-065 Owner: AVANTI Country: UK operational
MEOCIRCULAR

实时位置

正在加载3D地球...

关于 Hylas

正在加载描述...

即将过境

Passes for default location (London). Set your location on the main map for personalized predictions.

高度历史

Loading altitude history...

两行轨道根数

1 37237U 10065A 26106.13239269 .00000101 00000-0 00000-0 0 9996
2 37237 5.4859 73.7582 0001871 277.5574 274.4428 1.00275860 6265
Epoch: Apr 16, 2026 • Age: 22 hours

当前状态

高度 35788.7 km
速度 3.07 km/s
星下点 2.19°N, 13.9°E
发射日期 Nov 26, 2010
运行时间 15.3 years
类型 other

技术详情

分类 Payload
质量 2570.00 kg
干质量 1125.00 kg
总质量 2570.00 kg
长度 4.20 m
直径 2.60 m
跨度 9.00 m
形状 Box + 2 Pan
制造商 ISRO
平台类型 I2K
阶段状态 In Orbit
所有者/国家 AVANTI/UK

Most Searched